QPF
0.00 0.00 0.00 0.00 0.00 0.00 0.01 0.00 0.00 0.01 0.00 0.00 0.00 0.00 0.00 0.00 0.00 0.08 0.02 0.00 0.00 0.00 0.00 0.00 0.00 0.00 0.00 0.00 0.00 0.00 0.00 0.00 0.00 0.00 0.00 0.00 0.00 0.00 0.00 0.00 0.00 0.00 0.00 0.00 0.00 0.00 0.00 0.00 0.00
0.00 0.00 0.00 0.00 0.00 0.00 0.00 0.00 0.01 0.00 0.00 0.00 0.00 0.00 0.00 0.00 0.00 0.00 0.00 0.00 0.00 0.00 0.00 0.00 0.00 0.00 0.00 0.00 0.00 0.00 0.00 0.00 0.00 0.00 0.00 0.00 0.00 0.00 0.00 0.00 0.00 0.00 0.00 0.00 0.00 0.00 0.00 0.00 0.00
0.00 0.00 0.00 0.00 0.00 0.00 0.01 0.01 0.00 0.00 0.00 0.00 0.00 0.00 0.00 0.00 0.00 0.00 0.00 0.00 0.00 0.00 0.00 0.00 0.00 0.00 0.00 0.00 0.00 0.00 0.00 0.00 0.00 0.00 0.00 0.00 0.00 0.00 0.00 0.00 0.00 0.00 0.00 0.00 0.00 0.00 0.00 0.00 0.00
0.00 0.00 0.00 0.00 0.00 0.00 0.00 0.00 0.00 0.00 0.00 0.00 0.00 0.01 0.00 0.00 0.00 0.00 0.00 0.00 0.00 0.00 0.00 0.00 0.00 0.00 0.00 0.00 0.00 0.00 0.00 0.00 0.00 0.00 0.00 0.00 0.00 0.00 0.00 0.00 0.00 0.00 0.00 0.00 0.00 0.00 0.00 0.00 0.00
0.00 0.00 0.00 0.00 0.00 0.00 0.00 0.00 0.00 0.00 0.00 0.00 0.00 0.01 0.00 0.00 0.00 0.00 0.00 0.00 0.00 0.00 0.00 0.00 0.00 0.00 0.00 0.00 0.00 0.00 0.00 0.00 0.00 0.00 0.00 0.00 0.00 0.00 0.00 0.00 0.00 0.00 0.00 0.00 0.00 0.00 0.00 0.00 0.00
0.00 0.00 0.00 0.00 0.00 0.00 0.00 0.00 0.00 0.00 0.00 0.01 0.01 0.00 0.00 0.00 0.00 0.00 0.00 0.00 0.00 0.00 0.00 0.00 0.00 0.00 0.00 0.00 0.00 0.00 0.00 0.00 0.00 0.00 0.00 0.00 0.00 0.00 0.00 0.00 0.00 0.00 0.00 0.00 0.00 0.00 0.00 0.00 0.00
0.00 0.00 0.00 0.00 0.00 0.00 0.00 0.00 0.00 0.00 0.00 0.03 0.00 0.00 0.01 0.00 0.00 0.00 0.00 0.00 0.00 0.00 0.00 0.00 0.00 0.00 0.00 0.00 0.00 0.00 0.00 0.00 0.00 0.00 0.00 0.00 0.00 0.00 0.00 0.00 0.00 0.00 0.00 0.00 0.00 0.00 0.00 0.00 0.00
0.00 0.00 0.00 0.00 0.00 0.00 0.00 0.00 0.00 0.01 0.00 0.00 0.00 0.00 0.01 0.00 0.00 0.00 0.00 0.00 0.00 0.00 0.00 0.00 0.00 0.00 0.00 0.00 0.00 0.00 0.00 0.00 0.00 0.00 0.00 0.00 0.00 0.00 0.00 0.00 0.00 0.00 0.00 0.00 0.00 0.00 0.00 0.00 0.00
0.00 0.00 0.00 0.00 0.00 0.00 0.00 0.00 0.00 0.00 0.00 0.00 0.00 0.00 0.00 0.00 0.00 0.00 0.00 0.00 0.00 0.00 0.00 0.00 0.00 0.00 0.00 0.00 0.00 0.00 0.00 0.00 0.00 0.00 0.00 0.00 0.00 0.00 0.00 0.00 0.00 0.00 0.00 0.00 0.00 0.00 0.00 0.00 0.00
0.00 0.00 0.00 0.00 0.00 0.00 0.00 0.00 0.00 0.00 0.00 0.00 0.00 0.00 0.00 0.00 0.00 0.00 0.00 0.00 0.00 0.00 0.00 0.00 0.00 0.00 0.00 0.00 0.00 0.00 0.00 0.00 0.00 0.00 0.00 0.00 0.00 0.00 0.00 0.00 0.00 0.00 0.00 0.00 0.00 0.00 0.00 0.00 0.00
0.00 0.00 0.00 0.00 0.00 0.00 0.00 0.00 0.00 0.00 0.00 0.00 0.00 0.00 0.00 0.00 0.00 0.00 0.00 0.00 0.00 0.00 0.00 0.00 0.00 0.00 0.00 0.00 0.01 0.00 0.00 0.00 0.00 0.00 0.01 0.00 0.00 0.00 0.00 0.00 0.00 0.00 0.00 0.00 0.00 0.00 0.00 0.00 0.00
0.00 0.00 0.00 0.00 0.00 0.00 0.00 0.00 0.00 0.00 0.00 0.00 0.00 0.00 0.00 0.00 0.00 0.00 0.00 0.00 0.00 0.00 0.00 0.00 0.00 0.00 0.00 0.00 0.01 0.00 0.00 0.00 0.00 0.00 0.00 0.00 0.00 0.00 0.00 0.00 0.00 0.00 0.00 0.00 0.01 0.00 0.00 0.00 0.00
0.00 0.00 0.00 0.00 0.00 0.00 0.00 0.00 0.00 0.00 0.00 0.00 0.00 0.00 0.00 0.00 0.00 0.00 0.00 0.00 0.00 0.00 0.00 0.00 0.00 0.00 0.00 0.00 0.02 0.00 0.00 0.00 0.00 0.00 0.00 0.00 0.00 0.00 0.00 0.00 0.00 0.00 0.00 0.00 0.00 0.01 0.00 0.00 0.01
0.00 0.00 0.00 0.00 0.00 0.00 0.00 0.00 0.00 0.00 0.00 0.00 0.00 0.00 0.00 0.00 0.00 0.00 0.00 0.00 0.00 0.00 0.00 0.00 0.00 0.00 0.00 0.00 0.01 0.00 0.00 0.00 0.00 0.00 0.00 0.00 0.00 0.00 0.00 0.00 0.00 0.00 0.00 0.00 0.00 0.00 0.00 0.00 0.01
0.00 0.00 0.00 0.00 0.00 0.00 0.00 0.00 0.00 0.00 0.00 0.00 0.00 0.00 0.00 0.00 0.00 0.00 0.00 0.00 0.00 0.00 0.00 0.00 0.00 0.00 0.00 0.00 0.00 0.00 0.00 0.00 0.00 0.00 0.00 0.00 0.00 0.00 0.00 0.00 0.00 0.00 0.00 0.00 0.00 0.00 0.00 0.00 0.00
0.00 0.00 0.00 0.00 0.00 0.00 0.00 0.00 0.00 0.00 0.00 0.00 0.00 0.00 0.00 0.00 0.00 0.00 0.00 0.00 0.00 0.00 0.00 0.00 0.01 0.01 0.00 0.00 0.00 0.00 0.00 0.00 0.00 0.00 0.00 0.00 0.00 0.00 0.00 0.00 0.00 0.00 0.00 0.00 0.00 0.00 0.00 0.00 0.00
0.00 0.00 0.00 0.00 0.00 0.00 0.00 0.00 0.00 0.00 0.00 0.00 0.00 0.00 0.00 0.00 0.00 0.00 0.00 0.00 0.00 0.00 0.00 0.00 0.00 0.00 0.00 0.00 0.00 0.00 0.00 0.00 0.00 0.00 0.00 0.00 0.00 0.00 0.00 0.00 0.00 0.00 0.00 0.00 0.00 0.00 0.00 0.00 0.00
0.00 0.00 0.00 0.00 0.00 0.00 0.00 0.00 0.00 0.00 0.00 0.00 0.00 0.00 0.00 0.00 0.00 0.00 0.00 0.00 0.00 0.00 0.00 0.00 0.00 0.00 0.00 0.00 0.00 0.00 0.00 0.00 0.00 0.00 0.00 0.00 0.00 0.00 0.00 0.00 0.00 0.00 0.00 0.00 0.00 0.00 0.00 0.00 0.00
0.00 0.00 0.00 0.00 0.00 0.00 0.00 0.00 0.00 0.00 0.00 0.00 0.00 0.00 0.00 0.00 0.00 0.00 0.00 0.00 0.00 0.00 0.00 0.00 0.00 0.00 0.00 0.00 0.00 0.00 0.00 0.00 0.00 0.00 0.00 0.00 0.00 0.00 0.00 0.00 0.00 0.00 0.00 0.00 0.00 0.00 0.00 0.00 0.00
0.00 0.00 0.00 0.00 0.00 0.00 0.00 0.00 0.00 0.00 0.00 0.00 0.00 0.00 0.00 0.00 0.00 0.00 0.00 0.00 0.00 0.00 0.00 0.00 0.00 0.00 0.00 0.00 0.00 0.00 0.00 0.00 0.00 0.00 0.00 0.00 0.00 0.00 0.00 0.00 0.00 0.00 0.00 0.00 0.00 0.00 0.00 0.00 0.00
0.00 0.00 0.00 0.00 0.00 0.00 0.00 0.00 0.00 0.00 0.00 0.00 0.00 0.00 0.00 0.00 0.00 0.00 0.00 0.00 0.00 0.00 0.00 0.00 0.00 0.00 0.00 0.00 0.00 0.00 0.00 0.00 0.00 0.00 0.00 0.00 0.00 0.00 0.00 0.00 0.00 0.00 0.00 0.00 0.00 0.00 0.00 0.00 0.00
0.00 0.00 0.00 0.00 0.00 0.00 0.00 0.00 0.00 0.00 0.00 0.00 0.00 0.00 0.00 0.00 0.00 0.00 0.00 0.00 0.00 0.00 0.00 0.00 0.00 0.00 0.00 0.00 0.00 0.00 0.00 0.00 0.00 0.00 0.00 0.00 0.00 0.00 0.00 0.00 0.00 0.00 0.00 0.00 0.00 0.00 0.00 0.00 0.00
0.00 0.00 0.00 0.00 0.00 0.00 0.00 0.00 0.00 0.00 0.00 0.00 0.00 0.00 0.00 0.00 0.00 0.00 0.00 0.00 0.00 0.00 0.00 0.00 0.00 0.00 0.00 0.00 0.00 0.00 0.00 0.00 0.00 0.00 0.00 0.00 0.00 0.00 0.00 0.00 0.00 0.00 0.00 0.00 0.00 0.00 0.00 0.00 0.00
0.00 0.00 0.00 0.00 0.00 0.00 0.00 0.00 0.00 0.00 0.00 0.00 0.00 0.00 0.00 0.00 0.00 0.00 0.00 0.00 0.00 0.00 0.00 0.00 0.00 0.00 0.00 0.00 0.00 0.00 0.00 0.00 0.00 0.00 0.00 0.00 0.00 0.00 0.00 0.00 0.00 0.01 0.01 0.00 0.00 0.00 0.00 0.00 0.00
0.00 0.00 0.00 0.00 0.00 0.00 0.00 0.00 0.00 0.00 0.00 0.00 0.00 0.00 0.00 0.00 0.00 0.00 0.00 0.00 0.00 0.00 0.00 0.00 0.00 0.00 0.00 0.00 0.00 0.00 0.00 0.00 0.00 0.00 0.00 0.00 0.00 0.00 0.00 0.00 0.02 0.03 0.02 0.00 0.00 0.00 0.00 0.00 0.00
0.00 0.00 0.00 0.00 0.00 0.00 0.00 0.00 0.00 0.00 0.00 0.00 0.00 0.00 0.00 0.00 0.00 0.00 0.00 0.00 0.00 0.00 0.00 0.00 0.00 0.00 0.00 0.00 0.00 0.00 0.00 0.00 0.00 0.00 0.00 0.00 0.00 0.00 0.00 0.00 0.01 0.02 0.02 0.03 0.02 0.02 0.00 0.00 0.00
0.00 0.00 0.00 0.00 0.00 0.00 0.00 0.00 0.00 0.00 0.00 0.00 0.00 0.00 0.00 0.00 0.00 0.00 0.00 0.00 0.00 0.00 0.00 0.00 0.00 0.00 0.00 0.00 0.00 0.00 0.00 0.00 0.00 0.00 0.00 0.00 0.00 0.00 0.00 0.00 0.00 0.01 0.02 0.04 0.04 0.02 0.01 0.01 0.00
0.00 0.00 0.00 0.00 0.00 0.00 0.00 0.00 0.00 0.00 0.00 0.00 0.00 0.00 0.00 0.00 0.00 0.00 0.00 0.00 0.00 0.00 0.00 0.00 0.00 0.00 0.00 0.00 0.00 0.00 0.00 0.00 0.00 0.00 0.00 0.00 0.00 0.00 0.00 0.00 0.00 0.01 0.02 0.05 0.04 0.03 0.02 0.01 0.00
0.00 0.00 0.00 0.00 0.00 0.00 0.00 0.00 0.00 0.00 0.00 0.00 0.00 0.00 0.00 0.00 0.00 0.00 0.00 0.00 0.00 0.00 0.00 0.00 0.00 0.00 0.00 0.00 0.00 0.00 0.00 0.00 0.00 0.00 0.00 0.00 0.00 0.00 0.00 0.00 0.00 0.00 0.03 0.05 0.05 0.04 0.03 0.02 0.01
0.00 0.00 0.00 0.00 0.00 0.00 0.00 0.00 0.00 0.00 0.00 0.00 0.00 0.00 0.00 0.00 0.00 0.00 0.00 0.00 0.00 0.00 0.00 0.00 0.00 0.00 0.00 0.00 0.00 0.00 0.00 0.00 0.00 0.00 0.00 0.00 0.00 0.00 0.00 0.00 0.00 0.01 0.02 0.04 0.06 0.03 0.01 0.01 0.01
MSLP
1011.22 1010.52 1009.30 1007.79 1006.56 1004.71 1004.50 1003.55 1002.42 1002.44 1002.32 1004.38 1005.53 1006.02 1006.73 1007.23 1007.82 1009.28 1010.19 1010.45 1010.12 1010.88 1012.34 1013.12 1014.11 1014.50 1014.64 1014.75 1014.79 1015.14 1015.52 1015.77 1015.95 1016.05 1016.26 1016.33 1016.49 1016.59 1016.63 1016.70 1016.77 1016.80 1016.85 1016.92 1017.02 1017.12 1017.21 1017.30 1017.38
1009.57 1008.89 1008.30 1006.16 1005.12 1004.49 1004.83 1003.63 1003.73 1002.60 1003.43 1004.88 1005.56 1006.47 1007.15 1008.22 1008.87 1009.44 1010.18 1010.84 1010.18 1010.82 1012.15 1012.83 1014.22 1014.53 1014.97 1015.22 1015.23 1015.35 1015.64 1015.94 1015.97 1016.13 1016.32 1016.52 1016.66 1016.71 1016.83 1016.87 1016.86 1016.89 1016.95 1017.10 1017.20 1017.23 1017.30 1017.41 1017.47
1010.32 1008.57 1006.97 1004.35 1003.65 1005.03 1004.81 1005.44 1002.89 1003.86 1004.40 1004.61 1005.09 1006.59 1007.16 1008.43 1009.20 1009.33 1010.37 1011.17 1011.39 1011.33 1011.67 1013.60 1014.35 1014.51 1014.97 1015.43 1015.62 1015.65 1015.77 1016.07 1016.23 1016.33 1016.46 1016.54 1016.73 1016.82 1016.96 1017.06 1017.17 1017.21 1017.18 1017.13 1017.26 1017.28 1017.31 1017.45 1017.59
1008.33 1007.15 1005.95 1003.41 1003.97 1005.17 1004.57 1006.36 1003.66 1003.81 1004.40 1004.84 1005.38 1006.23 1008.37 1008.77 1009.43 1009.82 1010.72 1010.87 1010.91 1010.82 1011.74 1013.98 1014.70 1015.05 1015.15 1015.49 1015.71 1015.91 1016.10 1016.22 1016.35 1016.60 1016.72 1016.84 1016.80 1016.90 1016.88 1017.05 1017.05 1017.14 1017.25 1017.26 1017.26 1017.37 1017.39 1017.46 1017.57
1008.01 1005.96 1003.74 1002.78 1004.08 1003.96 1003.28 1003.25 1003.78 1003.48 1003.82 1004.49 1005.34 1006.09 1008.21 1009.73 1010.35 1010.85 1011.35 1011.16 1010.58 1010.53 1011.56 1013.54 1014.72 1015.14 1015.36 1015.44 1015.69 1015.93 1016.12 1016.30 1016.29 1016.52 1016.64 1016.88 1016.87 1016.99 1017.03 1017.17 1017.20 1017.14 1017.14 1017.26 1017.31 1017.37 1017.47 1017.44 1017.53
1006.31 1004.53 1002.99 1002.41 1004.05 1003.63 1003.59 1004.13 1004.11 1004.03 1004.17 1005.61 1006.16 1005.62 1007.77 1009.77 1010.43 1010.85 1011.33 1011.35 1011.39 1011.67 1011.90 1013.62 1014.72 1015.15 1015.64 1015.84 1015.86 1016.16 1016.16 1016.39 1016.34 1016.49 1016.51 1016.94 1016.95 1017.06 1016.97 1017.11 1017.24 1017.20 1017.15 1017.24 1017.17 1017.31 1017.41 1017.39 1017.48
1005.83 1003.92 1002.61 1002.25 1002.30 1003.06 1003.84 1004.84 1004.31 1005.60 1004.87 1007.57 1005.86 1005.96 1008.82 1009.15 1010.54 1010.58 1010.87 1011.28 1011.54 1011.85 1012.09 1013.37 1014.01 1014.92 1015.61 1015.82 1016.03 1016.26 1016.21 1016.45 1016.48 1016.45 1016.57 1016.52 1016.86 1016.92 1016.94 1016.90 1017.03 1017.09 1017.06 1017.17 1017.18 1017.20 1017.32 1017.31 1017.41
1005.23 1003.86 1002.72 1002.71 1002.52 1003.27 1004.46 1004.82 1005.10 1005.31 1006.09 1006.57 1006.58 1006.56 1011.32 1012.17 1010.65 1010.69 1010.71 1011.00 1011.48 1012.01 1011.99 1012.55 1013.59 1014.20 1014.81 1015.22 1015.77 1016.08 1016.41 1016.39 1016.51 1016.44 1016.66 1016.60 1016.75 1016.92 1016.91 1016.99 1016.88 1016.91 1016.93 1017.03 1017.01 1017.03 1017.10 1017.14 1017.12
1005.51 1004.30 1002.41 1002.34 1003.02 1003.58 1004.90 1004.64 1005.45 1005.95 1005.49 1006.31 1006.76 1007.32 1008.51 1010.37 1010.44 1010.03 1009.98 1010.54 1012.05 1012.18 1011.79 1011.99 1012.57 1013.30 1013.66 1014.26 1015.57 1016.33 1016.30 1016.48 1016.65 1016.76 1016.66 1016.61 1016.13 1016.06 1016.37 1016.34 1016.33 1016.63 1016.76 1016.79 1016.80 1016.78 1016.81 1016.87 1016.82
1004.96 1003.42 1002.64 1003.38 1003.75 1003.98 1004.92 1005.17 1005.65 1006.08 1006.30 1006.35 1006.59 1007.24 1008.44 1009.43 1009.93 1009.90 1009.90 1010.21 1011.31 1011.01 1010.94 1011.68 1012.24 1012.85 1013.11 1013.77 1015.06 1015.37 1015.54 1015.86 1015.79 1015.77 1016.06 1016.14 1015.38 1014.82 1015.44 1015.66 1016.07 1016.23 1016.47 1016.48 1016.36 1016.20 1016.26 1016.44 1015.66
1004.28 1003.65 1004.24 1005.08 1005.26 1004.92 1005.26 1005.99 1006.60 1006.36 1006.93 1007.55 1007.60 1007.33 1008.02 1008.69 1009.26 1008.81 1009.09 1009.34 1009.57 1010.20 1011.11 1010.94 1012.44 1013.20 1013.04 1013.39 1014.36 1014.54 1014.72 1014.77 1015.05 1015.18 1015.24 1015.42 1015.08 1014.43 1014.70 1014.69 1014.87 1015.25 1015.56 1015.28 1014.73 1014.72 1014.59 1014.03 1013.85
1004.67 1005.10 1005.20 1005.85 1006.36 1006.04 1005.99 1006.49 1007.60 1008.35 1008.51 1008.37 1008.24 1008.52 1008.24 1008.47 1008.36 1008.83 1008.63 1008.84 1009.10 1010.61 1009.01 1011.61 1012.43 1013.33 1013.19 1013.13 1013.92 1014.14 1014.34 1014.80 1014.71 1015.14 1015.54 1015.41 1014.83 1014.68 1014.96 1014.58 1014.37 1014.08 1013.91 1013.35 1013.81 1013.71 1013.01 1012.31 1012.14
1004.99 1005.93 1006.25 1006.66 1006.67 1006.59 1007.11 1007.21 1008.04 1009.13 1009.15 1009.00 1008.92 1009.14 1008.90 1008.78 1008.75 1008.94 1009.38 1010.13 1010.68 1010.52 1011.45 1011.40 1012.42 1013.50 1013.91 1014.52 1014.85 1014.93 1015.01 1014.70 1015.08 1015.15 1015.64 1015.23 1015.25 1015.38 1015.23 1014.72 1014.79 1014.04 1013.52 1012.82 1013.09 1014.49 1014.18 1013.32 1012.08
1005.90 1006.21 1006.42 1006.84 1006.94 1007.39 1007.40 1008.29 1008.60 1009.70 1009.71 1009.57 1009.75 1009.81 1009.84 1010.16 1010.18 1010.07 1009.85 1010.05 1011.36 1012.78 1012.97 1013.57 1013.93 1014.59 1014.56 1014.90 1015.24 1015.33 1015.14 1015.35 1015.26 1015.53 1015.94 1015.76 1015.67 1015.88 1015.29 1014.95 1014.71 1014.42 1013.96 1013.55 1013.00 1012.54 1012.65 1012.59 1012.11
1006.50 1006.47 1006.65 1006.98 1007.40 1007.60 1007.93 1008.51 1009.51 1010.17 1010.07 1010.09 1010.25 1010.37 1010.65 1010.69 1011.47 1011.93 1011.92 1011.22 1012.44 1013.48 1014.40 1014.75 1015.06 1015.08 1015.16 1015.24 1015.06 1014.91 1014.86 1014.98 1015.41 1015.84 1016.39 1016.28 1016.31 1016.17 1016.02 1015.29 1015.07 1014.82 1015.01 1014.45 1013.71 1013.34 1012.67 1011.84 1011.21
1006.37 1006.12 1005.77 1006.85 1007.62 1008.14 1008.66 1008.18 1010.13 1010.56 1010.50 1010.63 1010.99 1011.09 1011.43 1012.21 1012.95 1013.32 1013.02 1012.81 1013.29 1014.10 1014.95 1015.39 1015.25 1015.49 1015.63 1015.62 1015.12 1014.85 1015.25 1015.23 1015.57 1015.74 1015.91 1016.16 1016.22 1016.43 1016.07 1015.67 1015.61 1015.83 1015.32 1014.64 1014.25 1014.02 1013.70 1013.27 1012.84
1006.44 1005.60 1005.64 1006.72 1007.64 1007.81 1008.43 1008.40 1010.53 1011.07 1011.21 1011.39 1011.61 1012.00 1012.48 1013.13 1013.80 1014.17 1014.12 1014.12 1014.34 1014.68 1015.16 1015.83 1015.89 1015.80 1015.91 1015.86 1015.59 1015.65 1016.03 1015.53 1015.74 1015.75 1015.72 1016.45 1016.09 1016.11 1016.26 1016.01 1016.24 1016.44 1015.67 1015.29 1015.15 1014.94 1014.71 1014.06 1013.79
1004.94 1005.52 1006.12 1006.57 1007.35 1008.13 1007.88 1008.63 1010.62 1011.38 1011.46 1011.86 1012.25 1012.77 1013.29 1013.99 1014.48 1014.84 1014.94 1015.14 1015.23 1015.65 1016.18 1016.45 1016.39 1016.68 1016.48 1016.10 1016.10 1015.59 1015.67 1015.65 1015.65 1015.62 1015.82 1016.21 1015.87 1016.12 1016.31 1015.83 1016.40 1016.47 1015.90 1015.79 1016.00 1016.00 1015.45 1014.87 1014.10
1006.87 1006.78 1006.70 1006.82 1007.88 1008.87 1008.33 1009.03 1010.31 1011.69 1011.72 1012.07 1012.65 1013.35 1013.96 1014.62 1015.12 1015.31 1015.57 1015.74 1016.00 1016.40 1016.65 1016.75 1016.86 1017.01 1016.48 1015.97 1015.34 1015.24 1015.18 1015.38 1015.51 1015.62 1015.98 1016.11 1015.99 1016.00 1016.45 1016.25 1016.00 1016.16 1016.05 1016.45 1016.41 1015.95 1015.41 1014.72 1014.18
1007.83 1007.50 1007.16 1007.33 1008.37 1009.39 1008.61 1009.30 1010.39 1011.69 1012.24 1012.76 1013.05 1013.82 1014.28 1014.59 1015.17 1015.61 1015.98 1016.25 1016.59 1016.90 1016.97 1017.09 1017.21 1017.36 1016.94 1016.28 1016.29 1016.18 1015.78 1015.21 1015.18 1015.32 1015.85 1016.19 1016.21 1016.34 1016.37 1016.40 1016.41 1016.21 1016.24 1015.98 1016.15 1016.24 1015.67 1014.98 1014.33
1008.22 1008.41 1008.11 1008.39 1008.50 1008.90 1009.18 1008.84 1009.53 1011.63 1012.51 1013.23 1013.64 1014.21 1014.77 1015.29 1015.51 1015.88 1016.14 1016.46 1016.74 1016.93 1017.27 1017.47 1017.71 1017.83 1017.80 1017.86 1017.16 1016.66 1016.35 1016.18 1015.90 1015.73 1015.82 1015.65 1015.75 1016.12 1016.51 1016.58 1016.51 1016.59 1016.52 1015.89 1015.77 1015.91 1015.81 1015.04 1014.68
1009.41 1009.59 1009.84 1009.66 1009.34 1008.40 1008.50 1008.15 1009.13 1010.70 1012.12 1013.12 1013.71 1014.22 1014.79 1015.43 1015.76 1016.08 1016.32 1016.53 1016.64 1016.93 1017.01 1017.51 1017.89 1017.97 1017.60 1017.93 1018.02 1017.77 1017.32 1016.89 1016.57 1016.13 1015.74 1015.58 1015.75 1016.07 1016.21 1016.29 1016.30 1016.04 1016.13 1015.92 1015.59 1015.55 1015.67 1015.39 1014.70
1010.57 1011.01 1010.57 1010.32 1009.88 1009.38 1008.50 1008.52 1008.93 1010.47 1011.33 1012.35 1013.65 1014.56 1015.13 1015.56 1015.80 1016.14 1016.44 1016.65 1016.68 1016.82 1016.82 1017.13 1017.45 1017.73 1017.83 1017.76 1017.73 1017.40 1017.00 1016.49 1016.21 1016.29 1016.36 1016.06 1016.19 1015.83 1015.44 1015.36 1015.41 1015.77 1015.71 1015.57 1015.57 1015.50 1015.61 1015.26 1014.82
1012.01 1011.30 1010.58 1010.24 1009.73 1008.75 1007.90 1008.10 1008.54 1009.18 1010.78 1011.56 1012.93 1014.29 1015.23 1015.88 1016.04 1016.01 1016.41 1016.56 1016.53 1016.67 1016.88 1017.03 1017.34 1017.41 1017.50 1017.46 1017.32 1017.18 1016.93 1016.83 1016.67 1016.38 1016.25 1015.86 1015.34 1014.85 1014.85 1014.71 1014.53 1014.80 1015.27 1015.11 1015.35 1015.29 1015.41 1015.49 1015.15
1011.72 1011.30 1010.08 1009.45 1008.70 1008.17 1008.71 1009.55 1009.36 1010.96 1012.05 1012.89 1013.27 1014.22 1015.14 1015.69 1015.79 1015.68 1016.06 1016.22 1016.28 1016.37 1016.56 1016.97 1017.08 1017.15 1017.15 1017.07 1016.96 1016.81 1016.65 1016.50 1016.28 1016.24 1015.75 1015.16 1015.06 1014.76 1014.46 1014.48 1014.56 1014.70 1015.02 1014.77 1014.93 1014.91 1014.85 1014.94 1014.95
1012.33 1012.65 1011.69 1011.01 1009.83 1009.10 1009.14 1008.94 1010.20 1011.93 1013.25 1014.19 1014.76 1015.32 1015.69 1015.61 1015.65 1015.99 1015.99 1015.87 1015.83 1016.10 1016.55 1016.85 1016.95 1016.78 1016.69 1016.62 1016.50 1016.46 1016.39 1016.09 1015.71 1015.41 1015.50 1015.30 1015.20 1015.10 1015.03 1014.77 1014.51 1014.26 1013.99 1014.26 1014.62 1014.74 1014.58 1014.61 1014.52
1012.83 1012.64 1013.55 1013.21 1012.31 1010.81 1009.12 1009.19 1010.18 1012.69 1013.74 1014.45 1014.54 1015.04 1015.28 1016.08 1016.19 1016.04 1015.87 1016.04 1016.04 1016.26 1016.36 1016.45 1016.43 1016.27 1016.16 1016.18 1016.13 1015.99 1015.87 1015.72 1015.48 1015.32 1015.18 1015.02 1015.05 1015.03 1014.85 1014.69 1014.31 1014.08 1013.90 1013.78 1014.07 1014.17 1014.10 1014.13 1014.13
1014.00 1014.16 1013.79 1013.31 1013.15 1011.77 1010.07 1010.22 1010.82 1012.48 1012.96 1013.63 1014.18 1014.48 1014.84 1015.29 1015.58 1015.60 1015.88 1016.23 1016.08 1015.99 1015.86 1015.73 1015.65 1015.46 1015.54 1015.60 1015.45 1015.31 1015.32 1015.24 1015.22 1015.61 1015.56 1015.50 1015.32 1015.30 1015.09 1014.69 1014.17 1013.79 1013.59 1013.40 1013.49 1013.47 1013.36 1013.56 1013.58
1013.71 1013.55 1014.12 1014.70 1014.36 1013.23 1012.04 1011.09 1012.07 1013.11 1013.91 1014.48 1014.76 1014.88 1015.93 1016.45 1016.44 1015.74 1015.60 1015.85 1015.40 1015.31 1015.26 1015.26 1015.27 1015.14 1014.88 1014.87 1014.97 1014.94 1014.93 1015.21 1015.32 1015.29 1015.12 1015.10 1015.04 1015.16 1014.91 1014.44 1014.06 1013.78 1013.28 1012.87 1012.81 1012.71 1012.87 1012.84 1013.23
1014.01 1013.87 1014.23 1014.73 1014.64 1013.91 1013.53 1012.76 1013.29 1013.87 1014.13 1014.50 1014.72 1015.66 1016.97 1016.77 1015.32 1014.97 1015.07 1015.11 1015.14 1015.19 1015.12 1015.00 1015.00 1014.86 1014.56 1014.41 1014.57 1014.92 1015.18 1015.30 1015.19 1015.05 1014.97 1014.90 1014.88 1014.72 1014.29 1013.86 1013.44 1013.27 1012.74 1012.35 1012.00 1012.18 1012.46 1012.80 1012.28
Thickness
5817 5823 5838 5839 5811 5822 5799 5814 5851 5827 5822 5835 5832 5822 5813 5815 5799 5771 5817 5818 5822 5814 5800 5794 5788 5785 5785 5783 5782 5781 5778 5777 5777 5776 5775 5775 5772 5771 5771 5770 5770 5770 5770 5769 5768 5768 5768 5767 5766
5829 5835 5834 5834 5799 5784 5781 5830 5816 5827 5832 5833 5829 5819 5809 5791 5811 5808 5806 5813 5819 5812 5799 5794 5786 5783 5779 5779 5777 5776 5774 5772 5775 5774 5772 5771 5770 5769 5768 5767 5768 5768 5768 5767 5767 5767 5766 5765 5765
5822 5835 5820 5827 5821 5779 5789 5788 5830 5829 5834 5831 5824 5824 5813 5796 5808 5811 5814 5808 5805 5805 5801 5786 5782 5781 5777 5774 5773 5772 5771 5768 5769 5770 5769 5768 5767 5767 5766 5764 5764 5763 5764 5765 5765 5765 5765 5764 5762
5827 5830 5833 5823 5797 5796 5803 5775 5831 5827 5831 5836 5830 5802 5807 5819 5808 5813 5811 5809 5807 5807 5797 5780 5775 5773 5773 5770 5769 5768 5766 5765 5765 5763 5764 5762 5763 5763 5763 5761 5761 5761 5759 5760 5761 5761 5761 5761 5760
5827 5828 5819 5823 5800 5818 5838 5842 5835 5834 5832 5829 5830 5803 5795 5804 5808 5806 5800 5803 5805 5807 5797 5781 5773 5770 5769 5769 5766 5763 5762 5761 5762 5761 5760 5758 5759 5758 5758 5757 5756 5757 5757 5756 5757 5756 5756 5756 5756
5810 5835 5814 5811 5796 5823 5833 5833 5833 5829 5829 5815 5808 5813 5800 5805 5798 5799 5798 5797 5797 5794 5792 5778 5770 5767 5763 5762 5762 5758 5759 5757 5758 5757 5758 5753 5754 5753 5755 5753 5752 5753 5754 5753 5754 5753 5752 5753 5752
5805 5821 5820 5828 5827 5822 5823 5829 5823 5802 5814 5776 5827 5810 5790 5790 5795 5800 5799 5796 5793 5788 5786 5776 5770 5763 5759 5758 5757 5754 5756 5752 5752 5753 5753 5755 5751 5751 5752 5752 5750 5750 5751 5749 5750 5751 5749 5750 5749
5822 5828 5822 5827 5820 5810 5822 5823 5827 5816 5793 5819 5826 5792 5739 5757 5794 5797 5797 5795 5790 5785 5785 5778 5769 5764 5760 5758 5755 5752 5750 5751 5750 5751 5749 5752 5750 5748 5750 5749 5749 5749 5750 5748 5749 5749 5749 5748 5749
5833 5805 5817 5825 5818 5814 5822 5819 5824 5828 5818 5815 5814 5805 5799 5791 5795 5795 5794 5792 5779 5780 5784 5782 5776 5769 5766 5762 5752 5747 5746 5744 5742 5741 5744 5746 5749 5749 5747 5748 5749 5747 5746 5746 5745 5746 5746 5746 5747
5815 5816 5824 5831 5831 5821 5817 5818 5812 5807 5802 5802 5806 5810 5806 5799 5791 5787 5787 5784 5778 5784 5788 5783 5778 5772 5770 5764 5754 5753 5750 5746 5747 5746 5745 5743 5747 5752 5746 5747 5745 5746 5744 5744 5745 5746 5745 5742 5748
5826 5814 5817 5814 5818 5824 5813 5804 5809 5802 5783 5790 5787 5799 5803 5799 5795 5798 5796 5796 5796 5788 5781 5788 5773 5767 5769 5765 5757 5755 5752 5752 5750 5748 5748 5747 5749 5753 5749 5746 5750 5747 5745 5748 5756 5755 5755 5757 5756
5803 5811 5813 5806 5808 5807 5802 5805 5785 5782 5781 5796 5798 5798 5801 5797 5798 5796 5801 5799 5804 5767 5787 5782 5771 5764 5765 5764 5756 5753 5752 5747 5748 5744 5740 5740 5745 5745 5742 5745 5745 5747 5748 5759 5755 5744 5754 5765 5768
5805 5798 5802 5802 5803 5803 5800 5790 5781 5773 5787 5795 5795 5792 5792 5794 5796 5798 5797 5791 5788 5787 5777 5778 5769 5760 5755 5748 5744 5742 5740 5741 5737 5737 5733 5736 5735 5733 5734 5738 5736 5740 5744 5753 5752 5728 5733 5725 5756
5804 5799 5796 5797 5794 5794 5786 5779 5781 5773 5784 5783 5782 5781 5784 5780 5782 5785 5788 5785 5777 5764 5762 5758 5754 5747 5746 5743 5736 5735 5734 5731 5731 5729 5725 5725 5725 5724 5728 5730 5729 5730 5733 5736 5741 5747 5746 5748 5722
5800 5783 5789 5788 5787 5782 5788 5765 5758 5772 5779 5774 5774 5776 5775 5776 5772 5766 5768 5772 5765 5755 5747 5743 5738 5738 5736 5734 5732 5732 5731 5728 5724 5720 5715 5715 5713 5714 5714 5717 5718 5718 5716 5720 5725 5727 5732 5741 5745
5786 5792 5776 5781 5782 5780 5775 5755 5758 5770 5769 5765 5765 5767 5765 5759 5754 5754 5756 5757 5754 5743 5736 5731 5732 5727 5723 5722 5723 5723 5719 5717 5713 5710 5708 5704 5703 5702 5703 5706 5705 5703 5706 5710 5712 5713 5714 5717 5719
5779 5771 5780 5769 5784 5777 5769 5758 5755 5761 5756 5750 5752 5750 5747 5743 5740 5739 5740 5738 5735 5732 5726 5718 5716 5715 5712 5710 5710 5707 5702 5703 5700 5697 5696 5691 5693 5693 5691 5693 5690 5687 5692 5695 5696 5697 5698 5702 5704
5785 5776 5775 5767 5770 5770 5768 5758 5749 5751 5750 5743 5740 5736 5731 5725 5722 5723 5722 5720 5718 5714 5708 5704 5702 5696 5696 5698 5695 5697 5694 5691 5690 5687 5685 5681 5682 5680 5678 5682 5679 5676 5680 5681 5678 5677 5683 5687 5692
5775 5767 5764 5775 5769 5753 5759 5751 5746 5741 5743 5736 5731 5724 5718 5712 5713 5712 5709 5706 5700 5695 5690 5687 5685 5682 5684 5684 5686 5684 5682 5681 5678 5675 5673 5670 5669 5668 5663 5663 5668 5667 5667 5664 5665 5669 5673 5677 5682
5763 5757 5760 5767 5762 5747 5753 5742 5742 5735 5731 5727 5722 5713 5708 5705 5701 5697 5693 5689 5683 5677 5675 5672 5668 5666 5667 5669 5667 5665 5665 5668 5666 5662 5659 5653 5653 5652 5649 5649 5649 5653 5653 5657 5657 5656 5659 5666 5671
5756 5744 5749 5743 5753 5753 5742 5737 5735 5728 5725 5719 5716 5708 5699 5691 5685 5682 5678 5674 5669 5663 5658 5655 5651 5648 5646 5642 5645 5648 5647 5646 5644 5643 5643 5645 5644 5640 5636 5634 5635 5635 5637 5642 5647 5648 5648 5651 5656
5729 5746 5738 5733 5729 5722 5747 5714 5726 5718 5712 5707 5703 5698 5690 5681 5676 5670 5665 5660 5656 5651 5648 5641 5635 5631 5633 5627 5622 5621 5619 5620 5624 5627 5631 5632 5629 5626 5625 5623 5623 5626 5628 5628 5632 5635 5638 5639 5644
5726 5733 5729 5727 5720 5721 5731 5717 5725 5720 5704 5697 5690 5686 5680 5673 5666 5657 5651 5646 5643 5638 5633 5627 5623 5618 5613 5611 5608 5608 5608 5611 5613 5611 5609 5611 5608 5610 5615 5616 5616 5615 5616 5618 5618 5620 5621 5627 5631
5725 5723 5727 5728 5722 5704 5731 5727 5723 5722 5706 5705 5691 5677 5668 5660 5655 5648 5642 5635 5629 5624 5617 5612 5606 5601 5598 5595 5593 5592 5591 5590 5588 5590 5590 5594 5599 5602 5603 5603 5606 5609 5605 5605 5603 5606 5608 5609 5614
5721 5711 5701 5701 5709 5708 5724 5700 5714 5705 5701 5692 5684 5672 5660 5652 5646 5640 5629 5621 5615 5608 5601 5594 5588 5585 5583 5580 5578 5577 5576 5575 5575 5574 5577 5582 5583 5586 5588 5590 5590 5590 5588 5594 5593 5594 5598 5600 5600
5704 5696 5687 5665 5687 5706 5722 5694 5693 5694 5685 5674 5665 5656 5646 5640 5633 5622 5615 5608 5601 5592 5583 5575 5569 5567 5566 5566 5566 5564 5562 5562 5562 5564 5563 5565 5565 5566 5568 5570 5573 5577 5579 5578 5576 5577 5582 5583 5588
5697 5690 5693 5673 5685 5683 5716 5715 5705 5678 5664 5656 5649 5640 5631 5618 5611 5604 5600 5590 5580 5572 5566 5561 5556 5553 5553 5552 5552 5551 5550 5549 5549 5549 5550 5551 5551 5550 5552 5554 5557 5562 5564 5566 5564 5565 5568 5570 5574
5689 5692 5671 5678 5641 5650 5696 5689 5676 5668 5665 5659 5649 5641 5632 5621 5609 5596 5582 5570 5564 5560 5555 5552 5549 5545 5543 5543 5541 5541 5540 5539 5538 5533 5532 5532 5533 5533 5535 5538 5543 5547 5551 5554 5554 5554 5558 5558 5562
5684 5680 5676 5667 5662 5647 5650 5676 5680 5660 5651 5639 5633 5628 5610 5594 5583 5581 5572 5563 5560 5554 5549 5543 5538 5535 5535 5533 5532 5531 5530 5527 5524 5523 5524 5523 5522 5520 5520 5524 5528 5532 5538 5545 5544 5546 5545 5547 5547
5685 5677 5672 5644 5643 5659 5650 5650 5666 5654 5642 5630 5621 5608 5589 5582 5587 5577 5567 5559 5551 5544 5539 5535 5530 5528 5529 5528 5525 5521 5518 5516 5514 5514 5512 5511 5510 5511 5513 5516 5520 5522 5528 5534 5536 5535 5531 5530 5539